{"data":{"norad_id":68610,"intl_designator":"2026-073J","name":"STARLINK-37105","alt_names":[],"object_type":"PAYLOAD","status":"ACTIVE","operator":null,"country":"US","launch_date":"2026-04-07","launch_site_code":"AFWTR","launch_vehicle":null,"mission":null,"orbit_class":"UNKNOWN","rcs_meters":null,"size_class":null,"mass_kg":null,"dimensions":null,"purposes":["comms"],"wikipedia_slug":null,"has_3d_model":false,"image_url":null,"decayed_at":null,"tle_current":{"epoch":"2026-09-19T23:36:31.696416Z","epoch_age_seconds":88623,"freshness":"FRESH","line1":"1 68610U 26073J   26262.98370019  .00013110  00000+0  40764-3 0  9993","line2":"2 68610  97.2867 101.0381 0001735  89.2142 270.9300 15.33449340 25664","mean_motion":15.3344934,"eccentricity":0.0001735,"inclination_deg":97.2867,"raan_deg":101.0381,"arg_perigee_deg":89.2142,"mean_anomaly_deg":270.93,"bstar":0.00040764,"rev_number":2566,"period_min":93.905938881554,"perigee_km":464.34288545213,"apogee_km":466.71763799194,"semimajor_km":6843.667261722,"source":"CELESTRAK","updated_at":"2026-09-20T09:00:43.943397Z"}}}